This demonstration page uses our WeatherBlox Daily Observations layout. Learn more.

Left ArrowRight Arrow

44.8408, -93.29828

Hourly Observations for September 15, 2018

Temp ( °F °C ) Dew Point ( °F °C ) Humidity (%) Winds ( mph kmh ) Pressure ( in mb ) Visibility ( mi km ) Precip ( " mm )
12:53 am 00:53 Mostly Clear 76 24.4 67 19.4 74 74 SE 7 11 30.04 1017 10 16 0.00 0.00
1:53 am 01:53 Mostly Clear 75 23.9 67 19.4 76 76 SSE 5 7 30.03 1017 10 16 0.00 0.00
2:53 am 02:53 Partly Cloudy 74 23.3 67 19.4 79 79 SE 6 9 30.03 1017 10 16 0.00 0.00
3:53 am 03:53 Mostly Clear 72 22.2 67 19.4 84 84 SE 5 7 30.04 1017 10 16 0.00 0.00
4:53 am 04:53 Clear 71 21.7 67 19.4 87 87 SSE 5 7 30.04 1017 10 16 0.00 0.00
5:53 am 05:53 Clear 72 22.2 68 20 87 87 SE 6 9 30.06 1018 10 16 0.00 0.00
6:53 am 06:53 Mostly Sunny 71 21.7 68 20 90 90 SE 5 7 30.06 1018 10 16 0.00 0.00
7:53 am 07:53 Mostly Sunny 73 22.8 69 20.6 87 87 SE 3 6 30.08 1019 10 16 0.00 0.00
8:53 am 08:53 Mostly Sunny 76 24.4 70 21.1 82 82 SE 6 9 30.09 1019 10 16 0.00 0.00
9:53 am 09:53 Partly Cloudy 80 26.7 71 21.7 74 74 S 8 13 30.09 1019 10 16 0.00 0.00
10:53 am 10:53 Mostly Sunny 84 28.9 71 21.7 65 65 VRB 6 9 30.09 1019 10 16 0.00 0.00
11:53 am 11:53 Mostly Sunny 87 30.6 72 22.2 61 61 S 9 15 30.08 1019 10 16 0.00 0.00
12:53 pm 12:53 Partly Cloudy 89 31.7 70 21.1 53 53 S 14 22 30.07 1018 10 16 0.00 0.00
1:53 pm 13:53 Partly Cloudy 91 32.8 69 20.6 49 49 S 15 24 30.06 1018 10 16 0.00 0.00
2:53 pm 14:53 Partly Cloudy 92 33.3 67 19.4 44 44 SSW 12 19 30.05 1018 10 16 0.00 0.00
3:53 pm 15:53 Partly Cloudy 92 33.3 67 19.4 44 44 SSW 16 26 30.04 1017 10 16 0.00 0.00
4:53 pm 16:53 Mostly Sunny 92 33.3 66 18.9 43 43 SSW 12 19 30.03 1017 10 16 0.00 0.00
5:53 pm 17:53 Mostly Sunny 91 32.8 66 18.9 44 44 S 10 17 30.03 1017 10 16 0.00 0.00
6:53 pm 18:53 Mostly Sunny 89 31.7 67 19.4 48 48 S 8 13 30.03 1017 10 16 0.00 0.00
7:53 pm 19:53 Clear 85 29.4 68 20 57 57 SSE 5 7 30.02 1017 10 16 0.00 0.00
8:53 pm 20:53 Clear 82 27.8 68 20 63 63 SSE 8 13 30.03 1017 10 16 0.00 0.00
9:53 pm 21:53 Clear 81 27.2 69 20.6 67 67 SSE 9 15 30.03 1017 10 16 0.00 0.00
10:53 pm 22:53 Clear 79 26.1 69 20.6 72 72 SSE 10 17 30.03 1017 10 16 0.00 0.00
11:53 pm 23:53 Clear 79 26.1 68 20 69 69 S 13 20 30.03 1017 10 16 0.00 0.00

Powered by AerisWeather